Other Public Products
Issued by NWS Grand Forks, ND

Home | Current Version | Previous Version | Graphics & Text | Print | Product List | Glossary On
Versions: 1 2 3 4 5 6 7 8 9 10 11 12 13 14 15 16 17 18 19 20 21 22 23 24 25 26 27 28 29 30 31 32 33 34 35 36 37 38 39 40 41 42 43 44 45 46 47 48 49 50
000
FPUS83 KFGF 292210
OPUFGF
PRAIRIE TO PINES WEATHER ROUNDUP
NATIONAL WEATHER SERVICE EASTERN NORTH DAKOTA/GRAND FORKS ND
500 PM CDT THU SEP 29 2016

 **SATELLITE DATA USED TO AUGMENT SKY COVER AT AUTOMATED STATIONS**
 *****  WEATHER ACROSS EASTERN NORTH DAKOTA  *****

CITY           SKY/WX    TMP DP  RH WIND       PRES   REMARKS
GRAND FORKS    MOSUNNY   67  46  47 SE9       30.38F
GRAND FORKS AF SUNNY     66  47  49 SE8       30.37F
GRAND CITY NWS   N/A     64 N/A N/A S5          N/A
BUXTON         NOT AVBL
DEVILS LAKE    SUNNY     65  48  54 S14       30.34F
FARGO          SUNNY     67  45  45 SE10      30.39F
WAHPETON ARPT  CLEAR     64  43  45 SE10      30.39F
$$

 *****  WEATHER ACROSS CENTRAL AND WESTERN NORTH DAKOTA  *****

CITY           SKY/WX    TMP DP  RH WIND       PRES   REMARKS
JAMESTOWN      SUNNY     66  47  50 S13       30.33F
BISMARCK       SUNNY     70  46  42 SE18G26   30.26F
MINOT          SUNNY     71  45  39 SE15G24   30.23F
MINOT AFB      SUNNY     71  46  42 S17G24    30.22F
GARRISON         N/A     70  46  42 S14G22    30.24F
WILLISTON      SUNNY     76  47  35 SE13G22   30.14F
DICKINSON      SUNNY     74  43  32 SE18G29   30.16F
HETTINGER      SUNNY     77  43  29 SE20G28   30.19F
$$

 *****  OTHER OBSERVATIONS NORTHEAST NORTH DAKOTA  *****

CITY           SKY/WX    TMP DP  RH WIND       PRES   REMARKS
WALHALLA       FAIR      64  59  82 SE13G18   30.37F
LANGDON        FAIR      64  50  59 S13G21    30.36F
CAVALIER       FAIR      64  48  55 SE9       30.38F
GRAFTON        FAIR      64  48  55 SE8G17    30.40F
CANDO          FAIR      66  48  52 S16G22    30.35F
FORT TOTTEN      N/A     66  47  50 S10       29.95
ROLLA          FAIR      64  45  48 S15G23    30.33F
RUGBY          FAIR      68  45  42 S16       30.29F
 ***** THE ABOVE OBSERVATIONS ARE NON NWS ARE NOT QUALITY
        CONTROLLED AND MAY MIS-REPORT RAIN FOR SNOW...
$$

 *****  OTHER OBSERVATIONS SOUTHEAST NORTH DAKOTA *****

CITY           SKY/WX    TMP DP  RH WIND       PRES   REMARKS
COOPERSTOWN    FAIR      66  46  48 SE12      30.36F
VALLEY CITY    FAIR      64  46  52 SE15      30.38F
OAKES          NOT AVBL
GWINNER        FAIR      68  46  45 SE13      30.38F
SHEYENNE NWR     N/A     67  46  46 SE9       29.95S
BUFFALO        NOT AVBL
WYNDMERE       NOT AVBL
 ***** THE ABOVE OBSERVATIONS ARE NON NWS ARE NOT QUALITY
       CONTROLLED AND MAY MIS-REPORT RAIN FOR SNOW...
$$

  *****  WEATHER ACROSS NORTHERN MINNESOTA  *****

CITY           SKY/WX    TMP DP  RH WIND       PRES   REMARKS
FLAG ISLAND    SUNNY     59  46  63 SE6       30.44F
WARROAD        CLOUDY    63  52  67 E10       30.44F
ROSEAU         SUNNY     64  48  55 SE5       30.43F HAZE
HALLOCK        SUNNY     64  48  55 S9        30.40S
THF RVR FALLS  SUNNY     64  45  49 SE10      30.42F
HALSTAD          N/A     66  45  45 S8          N/A
FOSSTON        MOSUNNY   64  46  52 E7        30.43F
BAUDETTE       CLOUDY    60  45  57 SE10      30.46F
WASKISH        CLOUDY    59  48  67 SE6       30.46F
CROOKSTON      SUNNY     64  46  52 S8        30.40F
$$
  *****  WEATHER ACROSS CENTRAL AND WEST MINNESOTA  *****

CITY           SKY/WX    TMP DP  RH WIND       PRES   REMARKS
BEMIDJI        CLOUDY    58  46  63 SE8       30.45F
PARK RAPIDS    CLOUDY    60  42  51 S7        30.44F
WADENA         CLOUDY    61  45  55 E6        30.43F
DETROIT LAKES  SUNNY     61  45  55 S8        30.43F
MOORHEAD       SUNNY     64  45  48 S10       30.40F
FERGUS FALLS   SUNNY     63  46  55 SE7       30.42F
ELBOW LAKE     FAIR      62  47  57 SE9       30.41F
MORRIS MN      SUNNY     66  46  48 E10       30.40S
STAPLES        CLOUDY    59  45  58 E3        30.44F
WHEATON        NOT AVBL
$$
  *****  WEATHER ELSEWHERE ACROSS MINNESOTA  *****

CITY           SKY/WX    TMP DP  RH WIND       PRES   REMARKS
DULUTH         MOSUNNY   58  48  69 E13       30.47S
INTRNTL FALLS  CLOUDY    57  48  72 E8        30.47F
ELY            CLOUDY    55  46  71 CALM      30.48F
CLOQUET        SUNNY     57  45  62 E12       30.46F
BRAINERD       CLOUDY    60  48  64 E6        30.45F
HIBBING        CLOUDY    57  46  66 E3        30.47F
ALEXANDRIA     SUNNY     63  46  54 E7G17     30.43F
SAINT CLOUD    MOSUNNY   64  49  57 CALM      30.42F
MINNEAPOLIS    SUNNY     68  50  52 NE6       30.40F
$$

  *****  WEATHER ACROSS SOUTH DAKOTA  *****

CITY           SKY/WX    TMP DP  RH WIND       PRES   REMARKS
SIOUX FALLS    SUNNY     69  48  47 VRB7      30.36F
BROOKINGS      SUNNY     66  47  50 E9        30.37F
WATERTOWN      SUNNY     65  47  52 E8        30.37F
HURON          SUNNY     69  46  43 SE12      30.33F
SISSETON         N/A     68  45  43 S8        30.37F
ABERDEEN       SUNNY     69  45  41 SE8       30.34F
MITCHELL       SUNNY     70  46  42 SE7       30.35F
PIERRE         SUNNY     73  40  30 SE18G24   30.25F
MOBRIDGE       SUNNY     74  39  28 SE20      30.25F
RAPID CITY     SUNNY     81  44  27 S14       30.18F
$$

  *****  SOME WEATHER IN NEARBY STATES *****

CITY           SKY/WX    TMP DP  RH WIND       PRES   REMARKS
GLASGOW MT     SUNNY     78  45  30 S18G28    30.02F
GREAT FALLS MT SUNNY     75  50  41 E9        30.02F
CHEYENNE WY    SUNNY     77  34  21 SE9       30.30F
SCOTTSBLUFF NE SUNNY     82  42  24 SE14G25   30.21F
OMAHA NE       MOSUNNY   73  47  39 VRB5      30.33F
DES MOINES IA  SUNNY     75  46  35 NE8       30.30S
DAVENPORT IA   MOSUNNY   74  51  44 N16G24    30.23S
CHICAGO IL     PTSUNNY   64  57  78 NE17G23   30.20R
EAU CLAIRE WI  SUNNY     70  50  49 N8        30.37F
LA CROSSE WI   SUNNY     74  52  46 N10       30.33F
$$

  *****  SOME NATIONAL WEATHER *****

CITY           SKY/WX    TMP DP  RH WIND       PRES   REMARKS
LA GUARDIA NY  CLOUDY    65  53  65 E18G25    30.34S
RALEIGH NC     PTSUNNY   75  68  78 SE8       30.01R
ATLANTA GA     MOSUNNY   76  42  29 NW10      29.99R
NEW ORLEANS LA MOSUNNY   85  63  47 N9        30.03S
OKLAHOMA CITY  MOSUNNY   73  48  41 N12       30.27F
ALBUQUERQUE NM MOSUNNY   81  42  25 CALM      30.30F
SALT LAKE CITY PTSUNNY   70  54  56 NW20      30.18F
LOS ANGELES CA MOSUNNY   78  59  51 W16       29.99F
BOISE ID       MOSUNNY   88  35  15 W6        29.97F
SEATTLE WA     PTSUNNY   63  37  38 N9        30.08S
$$

*** WEATHER ACROSS MANITOBA...SASKATCHEWAN AND ONTARIO ***
                ***ONTARIO***

CITY           SKY/WX    TMP DP  RH WIND       PRES   REMARKS
GERALDTON      PTSUNNY   59  50  72 SW3       30.50S
THUNDER BAY    MOSUNNY   63  50  63 E6        30.48F
SIOUX LOOKOUT  CLOUDY    54  46  76 S3        30.50F
TORONTO        LGT RAIN  59  57  94 E13G21    30.31S FOG
BIG TROUT LK   PTSUNNY   59  46  63 CALM      30.45S
PICKLE LAKE    PTSUNNY   55  45  67 SW7       30.50R
DRYDEN         CLOUDY    55  45  67 E3        30.49F
KENORA         PTSUNNY   55  45  67 SE9       30.47F
$$
                *** MANITOBA***

CITY           SKY/WX    TMP DP  RH WIND       PRES   REMARKS
BRANDON        MOSUNNY   66  48  52 SE17      30.29F
DAUPHIN        SUNNY     70  46  43 SW12      30.24F
ISLAND LAKE    PTSUNNY   55  50  82 SE6       30.40F
PILOT MOUND      N/A     64  46  52 S16G22      N/A
THE PAS        CLOUDY    57  50  77 SE14      30.24F
THOMPSON       PTSUNNY   55  43  62 VRB2      30.32F
WINNIPEG       MOSUNNY   64  46  52 S15       30.38F
LYNN LAKE      SUNNY     61  36  39 SW7       30.25F
CHURCHILL      LGT RAIN  59  36  41 W12G22    30.24F
GILLAM         PTSUNNY   57  37  47 SW5       30.36S
$$
                ***SASKATCHEWAN***

CITY           SKY/WX    TMP DP  RH WIND       PRES   REMARKS
ESTEVAN        MOSUNNY   73  46  38 SE16G26   30.17F
KINDERSLEY     PTSUNNY   57  48  72 NE15      30.09F
LLOYDMINSTER   PTSUNNY   63  45  51 E9        30.13F
PRINCE ALBERT  PTSUNNY   61  48  63 NE10      30.16F
REGINA         MOSUNNY   79  39  24 SE22      30.08F
YORKTON        SUNNY     70  46  43 SE17G26   30.16F   C1F1C2F2C3F3C4F4C5F5C6F6C7F7C8F8C9F9CaFaCbFbCcFcCdFdCe!


USA.gov is the U.S. government's official web portal to all federal, state and local government web resources and services.